Previsão horária em Almirante

Hoje, 25 Janeiro, Segunda-feira

Tempo Temperatura Precipitação Vento Pressão Humidade
00:00 +24°C° 0 mm 2 m/s 755 mmHg 87%
01:00 +24°C° 0 mm 1 m/s 755 mmHg 89%
02:00 +24°C° 0 mm 1 m/s 754 mmHg 88%
03:00 +24°C° 0 mm 1 m/s 754 mmHg 87%
04:00 +24°C° 0 mm 2 m/s 754 mmHg 85%
05:00 +24°C° 0 mm 2 m/s 754 mmHg 83%
06:00 +24°C° 0 mm 2 m/s 755 mmHg 81%
07:00 +24°C° 0 mm 2 m/s 755 mmHg 79%
08:00 +25°C° 0 mm 2 m/s 755 mmHg 75%
09:00 +26°C° 0 mm 1 m/s 756 mmHg 72%
10:00 +27°C° 0 mm 1 m/s 756 mmHg 68%
11:00 +28°C° 0.1 mm 1 m/s 755 mmHg 67%
12:00 +29°C° 0.1 mm 1 m/s 755 mmHg 66%
13:00 +30°C° 0.1 mm 1 m/s 755 mmHg 64%
14:00 +30°C° 0.2 mm 2 m/s 754 mmHg 67%
15:00 +30°C° 0.2 mm 2 m/s 753 mmHg 70%
16:00 +30°C° 0.2 mm 2 m/s 753 mmHg 73%
17:00 +28°C° 0.2 mm 1 m/s 753 mmHg 79%
18:00 +27°C° 0.2 mm 1 m/s 753 mmHg 84%
19:00 +26°C° 0.2 mm 1 m/s 754 mmHg 90%
20:00 +26°C° 0.2 mm 1 m/s 754 mmHg 90%
21:00 +26°C° 0.2 mm 1 m/s 754 mmHg 90%
22:00 +26°C° 0.2 mm 1 m/s 755 mmHg 90%
23:00 +25°C° 0.1 mm 1 m/s 755 mmHg 90%

Amanhã, 26 Janeiro, Terça-feira

Tempo Temperatura Precipitação Vento Pressão Humidade
00:00 +25°C° 0.1 mm 1 m/s 755 mmHg 90%
01:00 +25°C° 0.1 mm 1 m/s 755 mmHg 90%
02:00 +24°C° 0 mm 1 m/s 754 mmHg 90%
03:00 +24°C° 0 mm 1 m/s 754 mmHg 90%
04:00 +24°C° 0 mm 1 m/s 754 mmHg 90%
05:00 +23°C° 0 mm 2 m/s 754 mmHg 88%
06:00 +23°C° 0 mm 2 m/s 755 mmHg 86%
07:00 +23°C° 0 mm 2 m/s 755 mmHg 84%
08:00 +25°C° 0 mm 2 m/s 755 mmHg 76%
09:00 +28°C° 0 mm 1 m/s 755 mmHg 69%
10:00 +30°C° 0 mm 1 m/s 755 mmHg 61%
11:00 +30°C° 0 mm 1 m/s 755 mmHg 60%
12:00 +31°C° 0 mm 2 m/s 755 mmHg 60%
13:00 +31°C° 0 mm 2 m/s 754 mmHg 60%
14:00 +31°C° 0 mm 2 m/s 754 mmHg 62%
15:00 +31°C° 0 mm 2 m/s 753 mmHg 63%
16:00 +30°C° 0 mm 2 m/s 753 mmHg 65%
17:00 +29°C° 0.1 mm 2 m/s 753 mmHg 71%
18:00 +28°C° 0.1 mm 2 m/s 754 mmHg 78%
19:00 +27°C° 0.1 mm 1 m/s 754 mmHg 84%
20:00 +26°C° 0.1 mm 1 m/s 754 mmHg 84%
21:00 +26°C° 0.1 mm 2 m/s 754 mmHg 85%
22:00 +25°C° 0.1 mm 2 m/s 755 mmHg 85%
23:00 +25°C° 0.1 mm 2 m/s 755 mmHg 82%

Depois de amanhã, 27 Janeiro, Quarta-feira

Tempo Temperatura Precipitação Vento Pressão Humidade
00:00 +26°C° 0.1 mm 1 m/s 755 mmHg 79%
01:00 +26°C° 0.1 mm 1 m/s 754 mmHg 76%
02:00 +26°C° 0 mm 1 m/s 754 mmHg 76%
03:00 +26°C° 0 mm 2 m/s 754 mmHg 75%
04:00 +26°C° 0 mm 2 m/s 753 mmHg 74%
05:00 +26°C° 0 mm 2 m/s 754 mmHg 75%
06:00 +26°C° 0 mm 2 m/s 754 mmHg 75%
07:00 +26°C° 0 mm 2 m/s 755 mmHg 75%
08:00 +26°C° 0.1 mm 2 m/s 755 mmHg 75%
09:00 +27°C° 0.1 mm 2 m/s 755 mmHg 75%
10:00 +27°C° 0.1 mm 2 m/s 756 mmHg 75%
11:00 +27°C° 0.2 mm 1 m/s 755 mmHg 79%
12:00 +27°C° 0.2 mm 1 m/s 755 mmHg 83%
13:00 +26°C° 0.2 mm 1 m/s 755 mmHg 86%
14:00 +27°C° 0.4 mm 1 m/s 754 mmHg 86%
15:00 +27°C° 0.4 mm 1 m/s 754 mmHg 86%
16:00 +28°C° 0.4 mm 1 m/s 753 mmHg 86%
17:00 +27°C° 0.2 mm 2 m/s 753 mmHg 87%
18:00 +27°C° 0.2 mm 2 m/s 754 mmHg 89%
19:00 +26°C° 0.2 mm 2 m/s 754 mmHg 90%
20:00 +26°C° 0.2 mm 2 m/s 755 mmHg 90%
21:00 +26°C° 0.2 mm 2 m/s 755 mmHg 90%
22:00 +25°C° 0.2 mm 2 m/s 755 mmHg 90%
23:00 +25°C° 0.2 mm 2 m/s 755 mmHg 90%

28 Janeiro, Quinta-feira

Tempo Temperatura Precipitação Vento Pressão Humidade
00:00 +25°C° 0.2 mm 2 m/s 755 mmHg 89%
01:00 +25°C° 0.2 mm 2 m/s 755 mmHg 89%
02:00 +25°C° 0.2 mm 2 m/s 755 mmHg 89%
03:00 +25°C° 0.2 mm 2 m/s 755 mmHg 88%
04:00 +25°C° 0.2 mm 2 m/s 754 mmHg 88%
05:00 +25°C° 0.1 mm 2 m/s 755 mmHg 88%
06:00 +25°C° 0.1 mm 2 m/s 755 mmHg 88%
07:00 +25°C° 0.1 mm 2 m/s 756 mmHg 88%
08:00 +26°C° 0.2 mm 2 m/s 756 mmHg 83%
09:00 +28°C° 0.2 mm 2 m/s 756 mmHg 77%
10:00 +29°C° 0.2 mm 2 m/s 757 mmHg 72%
11:00 +29°C° 0.8 mm 2 m/s 756 mmHg 75%
12:00 +29°C° 0.8 mm 3 m/s 756 mmHg 79%
13:00 +28°C° 0.8 mm 3 m/s 756 mmHg 83%
14:00 +28°C° 0.5 mm 3 m/s 755 mmHg 82%
15:00 +28°C° 0.5 mm 3 m/s 754 mmHg 81%
16:00 +29°C° 0.5 mm 3 m/s 754 mmHg 80%
17:00 +28°C° 0.1 mm 2 m/s 754 mmHg 83%
18:00 +27°C° 0.1 mm 2 m/s 754 mmHg 85%
19:00 +26°C° 0.1 mm 2 m/s 755 mmHg 88%
20:00 +25°C° 0 mm 2 m/s 755 mmHg 88%
21:00 +25°C° 0 mm 2 m/s 756 mmHg 87%
22:00 +25°C° 0 mm 2 m/s 756 mmHg 87%
23:00 +24°C° 0.2 mm 2 m/s 756 mmHg 85%

29 Janeiro, Sexta-feira

Tempo Temperatura Precipitação Vento Pressão Humidade
00:00 +24°C° 0.2 mm 2 m/s 756 mmHg 83%
01:00 +24°C° 0.2 mm 3 m/s 755 mmHg 81%
02:00 +24°C° 0.4 mm 3 m/s 755 mmHg 78%
03:00 +24°C° 0.4 mm 3 m/s 755 mmHg 75%
04:00 +24°C° 0.4 mm 3 m/s 754 mmHg 72%
05:00 +24°C° 0.4 mm 3 m/s 755 mmHg 72%
06:00 +24°C° 0.4 mm 2 m/s 755 mmHg 72%
07:00 +25°C° 0.4 mm 2 m/s 755 mmHg 72%
08:00 +25°C° 0.5 mm 2 m/s 756 mmHg 75%
09:00 +26°C° 0.5 mm 2 m/s 756 mmHg 78%
10:00 +26°C° 0.5 mm 2 m/s 757 mmHg 81%
11:00 +28°C° 0 mm 2 m/s 756 mmHg 72%
12:00 +29°C° 0 mm 2 m/s 756 mmHg 62%
13:00 +31°C° 0 mm 2 m/s 756 mmHg 52%
14:00 +31°C° 0 mm 2 m/s 755 mmHg 51%
15:00 +31°C° 0 mm 2 m/s 754 mmHg 50%
16:00 +31°C° 0 mm 2 m/s 753 mmHg 49%
17:00 +29°C° 0.1 mm 2 m/s 754 mmHg 61%
18:00 +27°C° 0.1 mm 2 m/s 754 mmHg 73%
19:00 +26°C° 0.1 mm 2 m/s 754 mmHg 85%
20:00 +25°C° 0.4 mm 2 m/s 754 mmHg 85%
21:00 +25°C° 0.4 mm 2 m/s 755 mmHg 84%
22:00 +25°C° 0.4 mm 2 m/s 756 mmHg 83%
23:00 +24°C° 0.2 mm 2 m/s 755 mmHg 83%

30 Janeiro, Sábado

Tempo Temperatura Precipitação Vento Pressão Humidade
00:00 +24°C° 0.2 mm 2 m/s 755 mmHg 82%
01:00 +24°C° 0.2 mm 2 m/s 755 mmHg 81%
02:00 +24°C° 0.2 mm 2 m/s 755 mmHg 81%
03:00 +24°C° 0.2 mm 2 m/s 755 mmHg 81%
04:00 +24°C° 0.2 mm 2 m/s 754 mmHg 81%
05:00 +24°C° 0.1 mm 2 m/s 755 mmHg 80%
06:00 +24°C° 0.1 mm 2 m/s 755 mmHg 79%
07:00 +24°C° 0.1 mm 1 m/s 755 mmHg 78%
08:00 +26°C° 0 mm 1 m/s 756 mmHg 71%
09:00 +28°C° 0 mm 1 m/s 756 mmHg 64%
10:00 +30°C° 0 mm 1 m/s 756 mmHg 57%
11:00 +31°C° 0 mm 1 m/s 756 mmHg 56%
12:00 +31°C° 0 mm 2 m/s 755 mmHg 55%
13:00 +32°C° 0 mm 2 m/s 755 mmHg 54%
14:00 +31°C° 0 mm 2 m/s 754 mmHg 55%
15:00 +31°C° 0 mm 2 m/s 754 mmHg 55%
16:00 +31°C° 0 mm 2 m/s 753 mmHg 56%
17:00 +29°C° 0 mm 1 m/s 753 mmHg 65%
18:00 +28°C° 0 mm 1 m/s 754 mmHg 73%
19:00 +26°C° 0 mm 1 m/s 754 mmHg 82%
20:00 +26°C° 0 mm 1 m/s 755 mmHg 81%
21:00 +26°C° 0 mm 1 m/s 755 mmHg 80%
22:00 +25°C° 0 mm 1 m/s 756 mmHg 79%
23:00 +25°C° 0 mm 1 m/s 756 mmHg 78%
Mostrar mais

Necessitamos do seu Consentimento

A Meteoprog e os seus Fornecedores de Serviços podem armazenar e aceder a dados pessoais como cookies, identificadores do dispositivo ou outras tecnologias semelhantes existentes no seu dispositivo e processar estes dados para personalizar conteúdos e anúncios, assim como funcionalidades nas redes sociais e análise de tráfego.

  • Armazenar e/ou aceder a informações no seu dispositivo

    Os cookies, identificadores do dispositivo ou outras informações podem ser armazenados ou acedidos no seu dispositivo, para os fins acima indicados.

  • Anúncios e conteúdos personalizados, medição de anúncios e conteúdos, dados sobre o público-alvo e desenvolvimento de produtos

    Os anúncios e os conteúdos podem ser personalizados com base num perfil. Podem ser adicionados dados adicionais para uma maior personalização dos anúncios e dos conteúdos. A eficácia dos anúncios e dos conteúdos pode ser medida. Podem ser obtidas informações sobre o público que visualizou os anúncios e os conteúdos. Estes dados podem ser usados para desenvolver ou melhorar sistemas, softwares ou a experiência do utilizador.

Ao clicar em "Eu concordo”, permitirá o uso de cookies, identificadores do dispositivo e web beacons mencionados ou outras tecnologias semelhantes. As configurações do navegador do seu dispositivo podem ser alteradas.

Para certos fins, podem ser invocados interesses legítimos ao invés de consentimento. Pode ler mais informação sobre este assunto na nossa Política de Privacidade e Cookies.